Simultaneous Nadir Overpasses (SNOs) Predictions

Prediction of SNOs between GOES-17 and TERRA Satellite Orbit:

Table of predicted SNOs for the next 14.0 days since TLE Epoch: 7/20/2024
Index Date Time (GOES-17) GOES-17 Lat,Lon TERRA Lat,Lon Distance(km) Time Diff (sec)
1 07/20/2024 16:41:02 0.01,-104.72 -0.04,-104.36 40.82 80
2 07/23/2024 04:46:11 -0.00,-104.70 -0.06,-105.00 34.13 80
3 07/25/2024 04:25:58 0.00,-104.71 0.82,-100.77 447.68 80
4 07/25/2024 16:48:31 0.00,-104.74 0.20,-105.60 98.20 80
5 07/27/2024 16:28:18 0.00,-104.75 -0.72,-101.37 384.22 80
6 07/28/2024 04:50:57 -0.01,-104.72 -0.33,-106.23 171.49 80
7 07/30/2024 04:30:44 -0.01,-104.73 0.58,-102.00 310.87 80
8 07/30/2024 16:53:16 0.01,-104.76 0.42,-106.84 235.07 80
9 08/01/2024 16:33:01 0.01,-104.77 -0.47,-102.60 247.56 80
10 08/02/2024 04:55:41 -0.02,-104.74 -0.56,-107.46 307.87 80
